Weather History for Huntsville Madison, AL

Change the Weather History Date:

Monday, May 27, 2013

  Actual Average (KHSV) Record (KHSV)
Temperature  
Mean Temperature 70 °F 73 °F  
Max Temperature 84 °F 84 °F 99 °F (1926)
Min Temperature 55 °F 62 °F 41 °F (1961)
Degree Days  
Heating Degree Days 0 0  
Month to date heating degree days 25  
Since 1 July heating degree days 2999  
Cooling Degree Days 4 8  
Month to date cooling degree days 154  
Year to date cooling degree days 226  
Growing Degree Days 20 (Base 50)    
Moisture  
Dew Point 51 °F    
Average Humidity 54    
Maximum Humidity 94    
Minimum Humidity 26    
Precipitation  
Precipitation 0.00 in 0.15 in 3.60 in (1924)
Month to date precipitation 4.50  
Year to date precipitation 23.76  
Snow  
Snow 0.00 in - - ()
Month to date snowfall  
Since 1 July snowfall  
Snow Depth -    
Sea Level Pressure  
Sea Level Pressure 30.14 in    
Wind  
Wind Speed 3 mph (South)    
Max Wind Speed 16 mph    
Max Gust Speed 24 mph    
Visibility 10 miles    
Events      
T = Trace of Precipitation, MM = Missing Value Source: NWS Daily Summary

Daily Weather History Graph

Daily Weather History Graph

Search for Another Location

Airport:

Trip Planner

Search our weather history database for the weather conditions in past years. The results will help you decide how hot, cold, wet, or windy it might be!

Date:

Astronomy

May. 27, 2013 Rise Set
Actual Time 5:35 AM CDT 7:51 PM CDT
Civil Twilight 5:06 AM CDT 8:20 PM CDT
Nautical Twilight 4:31 AM CDT 8:55 PM CDT
Astronomical Twilight 3:53 AM CDT 9:34 PM CDT
Moon 10:33 PM CDT (5/27) 8:10 AM CDT (5/27)
Length of Visible Light 15h 13m
Length of Day
14h 15m
Waning Gibbous, 91% of the Moon is Illuminated
May 27
Waning Gibbous
May 31
Last Quarter
Jun 8
New
Jun 16
First Quarter
Jun 23
Full

Hourly Weather History & Observations

Time (CDT) Temp. Dew Point Humidity Pressure Visibility Wind Dir Wind Speed Gust Speed Precip Events Conditions
12:15 AM 60.8 °F 55.4 °F 82% 30.16 in 10.0 mi Calm Calm - N/A   Clear
12:35 AM 60.8 °F 53.6 °F 77% 30.16 in 10.0 mi Calm Calm - N/A   Clear
12:55 AM 59.0 °F 53.6 °F 82% 30.15 in 10.0 mi Calm Calm - N/A   Clear
1:15 AM 59.0 °F 53.6 °F 82% 30.15 in 10.0 mi Calm Calm - N/A   Clear
1:35 AM 59.0 °F 53.6 °F 82% 30.15 in 10.0 mi Calm Calm - N/A   Clear
1:55 AM 59.0 °F 53.6 °F 82% 30.15 in 10.0 mi Calm Calm - N/A   Clear
2:15 AM 59.0 °F 53.6 °F 82% 30.15 in 10.0 mi Calm Calm - N/A   Clear
2:35 AM 57.2 °F 53.6 °F 88% 30.15 in 10.0 mi Calm Calm - N/A   Clear
2:55 AM 57.2 °F 53.6 °F 88% 30.15 in 10.0 mi Calm Calm - N/A   Clear
3:15 AM 57.2 °F 53.6 °F 88% 30.15 in 10.0 mi Calm Calm - N/A   Clear
3:35 AM 57.2 °F 53.6 °F 88% 30.15 in 10.0 mi Calm Calm - N/A   Clear
3:55 AM 55.4 °F 51.8 °F 88% 30.16 in 10.0 mi Calm Calm - N/A   Clear
4:15 AM 55.4 °F 53.6 °F 94% 30.15 in 10.0 mi ESE 3.5 mph - N/A   Clear
4:35 AM 57.2 °F 53.6 °F 88% 30.16 in 10.0 mi Calm Calm - N/A   Clear
4:55 AM 59.0 °F 53.6 °F 82% 30.16 in 10.0 mi Calm Calm - N/A   Clear
5:15 AM 59.0 °F 51.8 °F 77% 30.17 in 10.0 mi SE 3.5 mph - N/A   Clear
5:35 AM 59.0 °F 51.8 °F 77% 30.17 in 10.0 mi Calm Calm - N/A   Clear
5:55 AM 59.0 °F 51.8 °F 77% 30.18 in 10.0 mi Calm Calm - N/A   Clear
6:15 AM 60.8 °F 51.8 °F 72% 30.19 in 10.0 mi Calm Calm - N/A   Clear
6:35 AM 59.0 °F 53.6 °F 82% 30.19 in 10.0 mi Calm Calm - N/A   Clear
6:55 AM 62.6 °F 53.6 °F 72% 30.19 in 10.0 mi Calm Calm - N/A   Clear
7:15 AM 64.4 °F 53.6 °F 68% 30.19 in 10.0 mi Calm Calm - N/A   Clear
7:35 AM 68.0 °F 51.8 °F 56% 30.20 in 10.0 mi SSE 3.5 mph - N/A   Clear
7:55 AM 68.0 °F 53.6 °F 60% 30.20 in 10.0 mi Calm Calm - N/A   Clear
8:15 AM 68.0 °F 53.6 °F 60% 30.21 in 10.0 mi Calm Calm - N/A   Clear
8:35 AM 69.8 °F 53.6 °F 56% 30.20 in 10.0 mi SE 3.5 mph - N/A   Clear
8:55 AM 71.6 °F 53.6 °F 53% 30.19 in 10.0 mi SE 4.6 mph - N/A   Clear
9:15 AM 71.6 °F 53.6 °F 53% 30.19 in 10.0 mi SE 3.5 mph - N/A   Clear
9:35 AM 73.4 °F 51.8 °F 47% 30.18 in 10.0 mi Calm Calm - N/A   Clear
9:55 AM 77.0 °F 51.8 °F 41% 30.17 in 10.0 mi SE 4.6 mph - N/A   Clear
10:15 AM 78.8 °F 51.8 °F 39% 30.17 in 10.0 mi SE 4.6 mph - N/A   Clear
10:35 AM 80.6 °F 46.4 °F 30% 30.16 in 10.0 mi SSW 9.2 mph 16.1 mph N/A   Clear
10:55 AM 80.6 °F 48.2 °F 32% 30.16 in 10.0 mi SW 11.5 mph 16.1 mph N/A   Clear
11:15 AM 82.4 °F 46.4 °F 28% 30.16 in 10.0 mi SSW 15.0 mph 19.6 mph N/A   Clear
11:35 AM 82.4 °F 46.4 °F 28% 30.16 in 10.0 mi South 12.7 mph - N/A   Clear
11:55 AM 82.4 °F 46.4 °F 28% 30.15 in 10.0 mi SSE 12.7 mph 20.7 mph N/A   Scattered Clouds
12:15 PM 82.4 °F 46.4 °F 28% 30.15 in 10.0 mi SSW 13.8 mph - N/A   Scattered Clouds
12:35 PM 82.4 °F 44.6 °F 26% 30.14 in 10.0 mi South 13.8 mph 23.0 mph N/A   Scattered Clouds
12:55 PM 82.4 °F 46.4 °F 28% 30.13 in 10.0 mi South 12.7 mph 21.9 mph N/A   Scattered Clouds
1:15 PM 82.4 °F 46.4 °F 28% 30.13 in 10.0 mi SSW 10.4 mph - N/A   Scattered Clouds
1:35 PM 82.4 °F 46.4 °F 28% 30.13 in 10.0 mi SSW 11.5 mph 19.6 mph N/A   Scattered Clouds
1:55 PM 84.2 °F 48.2 °F 29% 30.12 in 10.0 mi SSW 11.5 mph - N/A   Scattered Clouds
2:15 PM 84.2 °F 46.4 °F 27% 30.12 in 10.0 mi SSW 13.8 mph 18.4 mph N/A   Scattered Clouds
2:35 PM 84.2 °F 46.4 °F 27% 30.12 in 10.0 mi SSW 15.0 mph 24.2 mph N/A   Scattered Clouds
2:55 PM 84.2 °F 46.4 °F 27% 30.12 in 10.0 mi SSW 13.8 mph - N/A   Scattered Clouds
3:15 PM 82.4 °F 48.2 °F 30% 30.11 in 10.0 mi South 10.4 mph 16.1 mph N/A   Clear
3:35 PM 84.2 °F 46.4 °F 27% 30.12 in 10.0 mi SSW 16.1 mph - N/A   Scattered Clouds
3:55 PM 84.2 °F 48.2 °F 29% 30.11 in 10.0 mi SSW 12.7 mph - N/A   Scattered Clouds
4:15 PM 82.4 °F 48.2 °F 30% 30.10 in 10.0 mi SSW 11.5 mph 16.1 mph N/A   Clear
4:35 PM 84.2 °F 46.4 °F 27% 30.10 in 10.0 mi SSW 11.5 mph - N/A   Scattered Clouds
4:55 PM 84.2 °F 46.4 °F 27% 30.10 in 10.0 mi SSW 12.7 mph - N/A   Scattered Clouds
5:15 PM 82.4 °F 48.2 °F 30% 30.09 in 10.0 mi SSW 9.2 mph 16.1 mph N/A   Mostly Cloudy
5:35 PM 82.4 °F 50.0 °F 32% 30.10 in 10.0 mi SW 11.5 mph - N/A   Scattered Clouds
5:55 PM 82.4 °F 50.0 °F 32% 30.09 in 10.0 mi SW 10.4 mph - N/A   Clear
6:15 PM 82.4 °F 46.4 °F 28% 30.09 in 10.0 mi SW 10.4 mph - N/A   Clear
6:35 PM 80.6 °F 46.4 °F 30% 30.08 in 10.0 mi SSW 10.4 mph - N/A   Clear
6:55 PM 80.6 °F 50.0 °F 34% 30.08 in 10.0 mi SSW 10.4 mph - N/A   Clear
7:15 PM 78.8 °F 51.8 °F 39% 30.08 in 10.0 mi SSW 5.8 mph - N/A   Clear
7:35 PM 77.0 °F 53.6 °F 44% 30.08 in 10.0 mi Calm Calm - N/A   Clear
7:55 PM 73.4 °F 53.6 °F 50% 30.08 in 10.0 mi SSE 3.5 mph - N/A   Clear
8:15 PM 77.0 °F 53.6 °F 44% 30.08 in 10.0 mi SSE 3.5 mph - N/A   Clear
8:35 PM 75.2 °F 53.6 °F 47% 30.08 in 10.0 mi SSE 4.6 mph - N/A   Clear
8:55 PM 75.2 °F 53.6 °F 47% 30.08 in 10.0 mi Calm Calm - N/A   Clear
9:15 PM 73.4 °F 53.6 °F 50% 30.09 in 10.0 mi Calm Calm - N/A   Clear
9:35 PM 71.6 °F 55.4 °F 57% 30.09 in 10.0 mi Calm Calm - N/A   Clear
9:55 PM 68.0 °F 57.2 °F 68% 30.09 in 10.0 mi Calm Calm - N/A   Clear
10:15 PM 71.6 °F 53.6 °F 53% 30.10 in 10.0 mi SE 3.5 mph - N/A   Clear
10:35 PM 69.8 °F 55.4 °F 60% 30.10 in 10.0 mi Calm Calm - N/A   Clear
10:55 PM 68.0 °F 57.2 °F 68% 30.10 in 10.0 mi Calm Calm - N/A   Clear
11:15 PM 68.0 °F 57.2 °F 68% 30.10 in 10.0 mi Calm Calm - N/A   Clear
11:35 PM 64.4 °F 57.2 °F 77% 30.10 in 10.0 mi Calm Calm - N/A   Clear
11:55 PM 64.4 °F 57.2 °F 77% 30.10 in 10.0 mi Calm Calm - N/A   Clear